Terminal Aerodrome Forecast
Issued by NWS St Louis, MO

Home | Current Version | Previous Version | Text Only | Print | Product List | Glossary On
Versions: 1 2 3 4 5 6 7 8 9 10 11 12 13
000
FTUS43 KLSX 070527
TAFCOU
TAF
KCOU 070527Z 0706/0806 32005KT P6SM BKN200
     FM072100 31009KT P6SM OVC050
     FM072300 30007KT P6SM VCSH OVC060
     FM080200 31008KT P6SM OVC060=

USA.gov is the U.S. government's official web portal to all federal, state and local government web resources and services.